Regional Weather Roundup
Issued by NWS

Home | Current Version | Previous Version | Text Only | Print | Product List | Glossary On
Versions: 1 2 3 4 5 6 7 8 9 10 11 12 13 14 15 16 17 18 19 20 21 22 23 24 25 26 27 28 29 30 31 32 33 34 35 36 37 38 39 40 41 42 43 44 45 46 47 48 49 50
849
ASUS44 KJAN 292210
RWRMS

MISSISSIPPI HOURLY WEATHER ROUNDUP
NATIONAL WEATHER SERVICE JACKSON MS
500 PM CDT FRI AUG 29 2014

NOTE: "FAIR: INDICATES FEW OR NO CLOUDS BELOW 12,000 FEET WITH NO
SIGNIFICANT WEATHER AND/OR OBSTRUCTIONS TO VISIBILITY.

MSZ001>002-007>008-010>013-018>021-025>028-034>036-292300-
NORTHWEST MISSISSIPPI

CITY           SKY/WX    TMP DP  RH WIND       PRES   REMARKS
CLARKSDALE     FAIR      82  73  74 SW5       29.94R
CLEVELAND      FAIR      86  74  67 CALM      29.92S HX  93
GREENWOOD      SUNNY     92  67  43 S8        29.93R HX  95
GREENVILLE     MOSUNNY   88  73  61 E6        29.91F HX  95
GRENADA        FAIR      91  64  40 S8        29.93S HX  93
OLIVE BRANCH   MOSUNNY   91  66  43 S13G18    29.93S HX  94
OXFORD         FAIR      90  64  43 S5        29.96R HX  91
TUNICA         PTCLDY    88  68  51 SE10      29.92S HX  91
$$

MSZ003>006-009-014>017-022>024-029>033-037>039-292300-
NORTHEAST MISSISSIPPI

CITY           SKY/WX    TMP DP  RH WIND       PRES   REMARKS
BELMONT        FAIR      89  63  41 S5        29.98R HX  90
COLUMBUS AFB   SUNNY     94  60  32 SE8       29.95S HX  93
CORINTH        FAIR      91  63  38 SE14      29.95S HX  92
GOLDN TRIANGLE PTSUNNY   91  61  35 SE12      29.96S HX  91
STARKVILLE     FAIR      91  61  35 S13       29.95S HX  91
TUPELO         SUNNY     94  58  29 S9G17     29.95S HX  93
$$

MSZ040-058-292300-
CENTRAL MISSISSIPPI

CITY           SKY/WX    TMP DP  RH WIND       PRES   REMARKS
JACKSON INTL   PTSUNNY   93  66  40 SE12      29.95R HX  96
JACKSON HAWKNS PTSUNNY   92  66  42 S12       29.95R HX  94
MERIDIAN KEY   PTSUNNY   91  66  43 S8        29.97R HX  93
MERIDIAN NAS   PTSUNNY   92  62  36 S7        29.97R HX  92
RAYMOND        FAIR      93  88  84 S7        29.94F HX 130
VICKSBURG      SUNNY     90  69  50 S9        29.92S HX  94
$$

MSZ059>079-292300-
SOUTH MISSISSIPPI

CITY           SKY/WX    TMP DP  RH WIND       PRES   REMARKS
BROOKHAVEN     FAIR      88  72  58 SE6       29.98S HX  94
COLUMBIA       MOCLDY    77  73  88 E10       29.99R
HATTIESBURG    LGT RAIN  77  74  90 W8        29.99R
MCCOMB         CLOUDY    86  72  62 S8        29.97S HX  92
NATCHEZ        PTSUNNY   88  73  62 SE10      29.94F HX  96
PINE BELT      CLOUDY   N/A N/A N/A SW10G21   30.01R
$$

MSZ080>082-292300-
COASTAL MISSISSIPPI

CITY           SKY/WX    TMP DP  RH WIND       PRES   REMARKS
BAY ST LOUIS   LGT RAIN N/A N/A N/A CALM      29.98S
BILOXI         LGT RAIN  77  74  91 NE1       29.98S
PASCAGOULA     LGT RAIN  77  75  93 CALM      29.99R FOG
GULFPORT       LGT RAIN  76  75  97 CALM      29.98R FOG
$$



USA.gov is the U.S. government's official web portal to all federal, state and local government web resources and services.